Location: ??????
(33.3472°N, 35.4764°E)
Time: 23:36:28
(UTC+00:00)

Meteor 2-3 Rocket - Pass Details

Date: 21 August 2019
Orbit: 841 x 886 km, 81.2° (Epoch: 19 September)

Event Time Altitude Azimuth Distance (km) Brightness Sun altitude
Rises 02:02:44 0° 354° (N) 3,413 7.1 -13.0°
Reaches altitude 10° 02:05:11 10° 357° (N) 2,470 6.4 -12.5°
Maximum altitude 02:10:46 70° 81° (E) 893 4.1 -11.4°
Drops below altitude 10° 02:16:17 10° 165° (SSE) 2,449 6.0 -10.4°
Sets 02:18:42 0° 168° (SSE) 3,381 6.7 -9.9°
